Showing default

OPS 1117 (TRANSIT 12), 2119

Orbit data source: Space-Track

OPS 1117 (TRANSIT 12), 2119 is a payload satellite owned by USN BuWeps (US) in LEO that was launched on Sat, 26 Mar 1966 UTC via an SCOUT A launch vehicle from the Air Force Western Test Range (AFWTR). Payload-class satellites include a variety of spacecraft equipped with specific instruments for various scientific and technological missions. These include communications satellites like Starlink; space stations such as the ISS; scientific satellites like the Hubble; Earth observation satellites from companies like Planet Labs, Umbra, and HawkEye 360; GPS; miniature CubeSats for education and research; and military/defense satellites.

Loading next visibility...
Identifier
2119, 1966-024A
Orbit
LEO
Country
Flag of USUS
Related business
Manufacturer
APL
Mission
Spacecraft
Bus & Motor
TRANSIT 5, Unknown motor
Mass
51 kg wet, 51 kg dry
Launch date (UTC)
1966-03-26 (60 years ago)
Launch vehicle
SCOUT A
Launch site
Air Force Western Test Range (AFWTR)
Object type
Payload
Rocket body
Debris
Shape & HBR
Unknown
Radar Cross Section
Large (>1 m²)

Expand to show TLE details & history
Last TLE update: 14 hours ago

TLE from 14 hours ago
0 OPS 1117 (TRANSIT 12)
1 02119U 66024A   26106.21429198  .00000120  00000-0  10557-3 0  9996
2 02119  89.6005  91.0501 0144468 232.8463 125.9436 13.75392764  6636
Epoch: 2026-04-16T05:08Z
TLE epoch observation values (Epoch: 2026-04-16T05:08:34.827Z)
Latitude
-0.00006°
Longitude
169.53994°
Altitude
1,046.671 km
Speed
7.297 km/s
True Right ascension
06h 04m 12s
True Declination
0° 00' 00"
Sunlit
Object was in daylight at epoch
Visualization orbit readout
Latitude
Unknown
Longitude
Unknown
Altitude
Unknown
Speed
Unknown
Apparent Right ascension
Unknown
Apparent Declination
Unknown
Sunlit
N/A
Visualization observer readout
Local Sidereal Time
02:09:23
Azimuth
Unknown
Elevation
Unknown
Doppler factor
Unknown
Orbital elements
Apogee altitude
1,083.548 km
Perigee altitude
871.024 km
Semi-major axis
7,355.423 km
Eccentricity
0.01445
Inclination
89.6005°
RAAN
91.0501°
Arg. of periapsis
232.8463°
True anomaly
127.26969°
Mean anomaly
125.9436°
Eccentric anomaly
126.60806°
Mean motion
3.44058 °/min
Orbital period
104.63 mins
BSTAR
0.00010557
Loading maneuver chart data...
Computing Atmospheric mass density...
Loading historical data...
Loading historical data...
Loading historical data...
Loading historical data...
Loading historical data...
Loading historical data...
Loading historical data...

Documentation

Showing up to 5 results
|